Regional Weather Roundup
Issued by NWS

Home | Current Version | Previous Version | Graphics & Text | Print | Product List | Glossary On
Versions: 1 2 3 4 5 6 7 8 9 10 11 12 13 14 15 16 17 18 19 20 21 22 23 24 25 26 27 28 29 30 31 32 33 34 35 36 37 38 39 40 41 42 43 44 45 46 47 48 49 50
000
ASUS43 KOAX 192210
RWRNE

WEATHER ROUNDUP FOR NEBRASKA
NATIONAL WEATHER SERVICE OMAHA NE
500 PM CDT TUE SEP 19 2017

NOTES: SATELLITE DATA IS BEING USED TO AUGMENT CLOUD COVER ABOVE
       12000 FEET.
       "FAIR" INDICATES FEW OR NO CLOUDS BELOW 12,000 FEET WITH NO
       SIGNIFICANT WEATHER AND/OR OBSTRUCTIONS TO VISIBILITY.


NEZ001>004-019>022-054>056-192300-
NEBRASKA PANHANDLE

CITY           SKY/WX    TMP DP  RH WIND       PRES   REMARKS
SCOTTSBLUFF    SUNNY     69  40  34 NW35G48   29.66R
ALLIANCE       CLOUDY    73  43  33 NW32G40   29.61R
CHADRON        PTSUNNY   66  39  37 NW21G36   29.66R
GORDON         FAIR      76  44  31 W24G37    29.58R
KIMBALL        SUNNY     73  42  32 N31G41    29.67R
SIDNEY         CLOUDY    85  26  11 VRB5      29.59R
$$

NEZ057>060-069>072-079>082-192300-
SOUTHWEST NEBRASKA

CITY           SKY/WX    TMP DP  RH WIND       PRES   REMARKS
NORTH PLATTE   CLOUDY    91  50  24 S10       29.47F
IMPERIAL       CLOUDY    90  29  11 W8        29.50F
LEXINGTON      CLOUDY    93  49  22 S12       29.46F HX  90
MCCOOK         CLOUDY    94  37  13 S17G26    29.46F
OGALLALA       CLOUDY    85  39  19 SW3       29.51F
$$

NEZ005>010-023>029-035>040-094-192300-
NORTH CENTRAL NEBRASKA

CITY           SKY/WX    TMP DP  RH WIND       PRES   REMARKS
VALENTINE      CLOUDY    84  59  42 SW14      29.49S
AINSWORTH      SUNNY     84  62  46 S14       29.49F
BROKEN BOW     CLOUDY    89  60  37 S15G24    29.48F
O`NEILL        CLOUDY    84  67  56 S20       29.49S
ORD            CLOUDY    85  62  46 SE17      29.47F
THEDFORD       CLOUDY    86  56  36 S14G23    29.50F
$$

NEZ041-046>049-061>064-073>077-083>087-192300-
SOUTH CENTRAL NEBRASKA

CITY           SKY/WX    TMP DP  RH WIND       PRES   REMARKS
GRAND ISLAND   CLOUDY    87  68  52 SE24G32   29.51F HX  90
AURORA         CLOUDY    89  64  44 S21G28    29.52F HX  90
HASTINGS       CLOUDY    92  62  36 S18G33    29.51F HX  92
HEBRON         SUNNY     93  64  38 S15G28    29.55F HX  95
HOLDREGE       CLOUDY    94  38  14 S20G28    29.48F
KEARNEY        CLOUDY    91  62  37 S21G26    29.48F HX  91
YORK           CLOUDY    90  66  45 S22G30    29.53F HX  92
$$

NEZ011>018-030>034-042>045-192300-
NORTHEAST NEBRASKA

CITY           SKY/WX    TMP DP  RH WIND       PRES   REMARKS
NORFOLK        CLOUDY    86  67  52 SE24G36   29.50F
ALBION         PTSUNNY   85  69  59 S18G25    29.50F
BLAIR          SUNNY     87  67  52 SE22G30   29.61F
COLUMBUS       CLOUDY    88  68  51 SE20G30   29.52F HX  91
FREMONT        SUNNY     87  66  50 SE21G30   29.57F
TEKAMAH        SUNNY     87  66  49 SE20G30   29.57F
WAYNE          CLOUDY    83  70  64 SE24G33   29.54F
$$

NEZ050>053-065>068-078-088>093-192300-
SOUTHEAST NEBRASKA

CITY           SKY/WX    TMP DP  RH WIND       PRES   REMARKS
LINCOLN        SUNNY     91  68  46 S26G36    29.56F HX  95
OMAHA EPPLEY   MOSUNNY   90  66  45 S28G36    29.60F HX  92
BEATRICE       SUNNY     92  68  45 SE24G32   29.57F HX  96
FALLS CITY     SUNNY     87  69  54 SE24G36   29.63F HX  91
NEBRASKA CITY  SUNNY     87  70  56 SE20G28   29.63F HX  92
PLATTSMOUTH    SUNNY     87  69  54 SE16G32   29.62F HX  91
$$

NEZ044-045-051>053-067-192300-
OMAHA AREA

CITY           SKY/WX    TMP DP  RH WIND       PRES   REMARKS
OMAHA EPPLEY   MOSUNNY   90  66  45 S28G36    29.60F HX  92
BLAIR          SUNNY     87  67  52 SE22G30   29.61F
FREMONT        SUNNY     87  66  50 SE21G30   29.57F
MILLARD        MOSUNNY   90  70  52 SE21G30   29.60F HX  95
OFFUTT AFB     SUNNY     88  67  49 SE24G32   29.60F HX  90
PLATTSMOUTH    SUNNY     87  69  54 SE16G32   29.62F HX  91
WAHOO          FAIR      89  66  46 SE20G31   29.57F HX  91
$$




USA.gov is the U.S. government's official web portal to all federal, state and local government web resources and services.